Tracking 29606 objects as of 18-Sep-2024
HD Live streaming from Space Station
objects crossing your sky now

FENGYUN 1C DEB

Track FENGYUN 1C DEB now!
10-day predictions


NORAD ID: 31047
Int'l Code: 1999-025BER
Perigee: 838.5 km
Apogee: 877.2 km
Inclination: 98.7 °
Period: 101.9 minutes
Semi major axis: 7228 km
RCS: 0.0107 m2 (small)
Launch date: May 10, 1999
Source: People's Republic of China (PRC)
Launch site: Taiyaun Space Center, China (TSC)

Note: This is SATELLITE DEBRIS
Your satellite tracking list
Your tracking list is empty




NASA's NSSDC Master Catalog

Two Line Element Set (TLE):
1 31047U 99025BER 24261.49706490  .00005007  00000-0  27203-2 0  9992
2 31047  98.6917 265.6222 0026764  29.0837 122.7862 14.12543189899851
Source of the keplerian elements: AFSPC